| time (UTC) | temp F | wind direction | speed knots | gust knots | rain 1hr in | rain 24hr in | rain mn in | humidity % | barometer mb |
| 20260508043335 | 57 | 230 | 2.6 | 0.0 | 0.00 | 0.00 | 0.00 | 94 | 1015.0 |
| 20260508041833 | 57 | 250 | 2.6 | 0.0 | 0.00 | 0.00 | 0.00 | 94 | 1015.0 |
| 20260508040336 | 57 | 250 | 2.6 | 0.0 | 0.00 | 0.00 | 0.00 | 94 | 1015.0 |
| 20260508034833 | 57 | 260 | 2.6 | 0.0 | 0.00 | 0.00 | 0.00 | 94 | 1015.0 |
| 20260508033336 | 57 | 260 | 2.6 | 0.0 | 0.00 | 0.00 | 0.00 | 94 | 1015.0 |
| 20260508031836 | 55 | 260 | 5.2 | 0.0 | 0.00 | 0.00 | 0.00 | 100 | 1015.0 |
| 20260508030336 | 55 | 260 | 5.2 | 0.0 | 0.00 | 0.00 | 0.00 | 100 | 1015.0 |
| 20260508024836 | 57 | 270 | 8.7 | 0.0 | 0.00 | 0.00 | 0.00 | 94 | 1015.0 |
| 20260508023336 | 57 | 270 | 8.7 | 0.0 | 0.00 | 0.00 | 0.00 | 94 | 1015.0 |
| 20260508021836 | 57 | 250 | 2.6 | 0.0 | 0.00 | 0.00 | 0.00 | 94 | 1015.0 |
| 20260508020335 | 57 | 250 | 2.6 | 0.0 | 0.00 | 0.00 | 0.00 | 94 | 1015.0 |
| 20260508014832 | 57 | 0 | 0.0 | 0.0 | 0.00 | 0.00 | 0.00 | 94 | 1015.0 |
| 20260508013336 | 57 | 0 | 0.0 | 0.0 | 0.00 | 0.00 | 0.00 | 94 | 1015.0 |
| 20260508011835 | 57 | 0 | 0.0 | 0.0 | 0.00 | 0.00 | 0.00 | 94 | 1015.0 |
| 20260508010335 | 57 | 0 | 0.0 | 0.0 | 0.00 | 0.00 | 0.00 | 94 | 1015.0 |
| 20260508004836 | 57 | 0 | 0.0 | 0.0 | 0.00 | 0.00 | 0.00 | 94 | 1015.0 |
| 20260508003335 | 57 | 0 | 0.0 | 0.0 | 0.00 | 0.00 | 0.00 | 94 | 1015.0 |
| 20260508001831 | 57 | 0 | 0.0 | 0.0 | 0.00 | 0.00 | 0.00 | 100 | 1015.0 |
| 20260508000335 | 57 | 0 | 0.0 | 0.0 | 0.00 | 0.00 | 0.00 | 100 | 1015.0 |
| 20260507234833 | 57 | 0 | 0.0 | 0.0 | 0.00 | 0.00 | 0.00 | 100 | 1015.0 |
| 20260507233335 | 57 | 0 | 0.0 | 0.0 | 0.00 | 0.00 | 0.00 | 100 | 1015.0 |
| 20260507231835 | 57 | 0 | 0.0 | 0.0 | 0.00 | 0.00 | 0.00 | 100 | 1015.0 |
| 20260507230335 | 57 | 0 | 0.0 | 0.0 | 0.00 | 0.00 | 0.00 | 100 | 1015.0 |
| 20260507224835 | 57 | 0 | 0.0 | 0.0 | 0.00 | 0.00 | 0.00 | 100 | 1015.0 |
| 20260507223455 | 57 | 0 | 0.0 | 0.0 | 0.00 | 0.00 | 0.00 | 100 | 1015.0 |
| 20260507221832 | 57 | 0 | 0.0 | 0.0 | 0.00 | 0.00 | 0.00 | 100 | 1015.0 |
| 20260507220335 | 57 | 0 | 0.0 | 0.0 | 0.00 | 0.00 | 0.00 | 100 | 1015.0 |
| 20260507214835 | 59 | 0 | 0.0 | 0.0 | 0.00 | 0.00 | 0.00 | 94 | 1015.0 |
| 20260507213337 | 59 | 0 | 0.0 | 0.0 | 0.00 | 0.00 | 0.00 | 94 | 1015.0 |
| 20260507211835 | 59 | 0 | 0.0 | 0.0 | 0.00 | 0.00 | 0.00 | 94 | 1015.0 |
| 20260507210336 | 59 | 0 | 0.0 | 0.0 | 0.00 | 0.00 | 0.00 | 94 | 1015.0 |
| 20260507204835 | 59 | 0 | 0.0 | 0.0 | 0.00 | 0.00 | 0.00 | 94 | 1015.0 |
| 20260507203336 | 59 | 0 | 0.0 | 0.0 | 0.00 | 0.00 | 0.00 | 94 | 1015.0 |
| 20260507201835 | 59 | 0 | 0.0 | 0.0 | 0.00 | 0.00 | 0.00 | 94 | 1015.0 |
| 20260507200336 | 59 | 0 | 0.0 | 0.0 | 0.00 | 0.00 | 0.00 | 94 | 1015.0 |
| 20260507194841 | 59 | 0 | 0.0 | 0.0 | 0.00 | 0.00 | 0.00 | 94 | 1015.0 |
| 20260507193335 | 59 | 0 | 0.0 | 0.0 | 0.00 | 0.00 | 0.00 | 94 | 1015.0 |
| 20260507191835 | 59 | 0 | 0.0 | 0.0 | 0.00 | 0.00 | 0.00 | 88 | 1015.0 |
| 20260507190336 | 59 | 0 | 0.0 | 0.0 | 0.00 | 0.00 | 0.00 | 88 | 1015.0 |
| 20260507184837 | 61 | 0 | 0.0 | 0.0 | 0.00 | 0.00 | 0.00 | 83 | 1014.0 |
| 20260507183335 | 61 | 0 | 0.0 | 0.0 | 0.00 | 0.00 | 0.00 | 83 | 1014.0 |
| 20260507181835 | 61 | 1.7 | 0.0 | 0.00 | 0.00 | 0.00 | 83 | 1014.0 | |
| 20260507180335 | 61 | 1.7 | 0.0 | 0.00 | 0.00 | 0.00 | 83 | 1014.0 | |
| 20260507174835 | 63 | 260 | 1.7 | 0.0 | 0.00 | 0.00 | 0.00 | 77 | 1014.0 |
| 20260507173336 | 63 | 260 | 1.7 | 0.0 | 0.00 | 0.00 | 0.00 | 77 | 1014.0 |
| 20260507171836 | 63 | 290 | 2.6 | 0.0 | 0.00 | 0.00 | 0.00 | 77 | 1014.0 |
| 20260507170335 | 63 | 290 | 2.6 | 0.0 | 0.00 | 0.00 | 0.00 | 77 | 1014.0 |
| 20260507164836 | 63 | 270 | 5.2 | 0.0 | 0.00 | 0.00 | 0.00 | 77 | 1014.0 |
| 20260507163336 | 63 | 270 | 5.2 | 0.0 | 0.00 | 0.00 | 0.00 | 77 | 1014.0 |
| 20260507161835 | 63 | 270 | 6.1 | 0.0 | 0.00 | 0.00 | 0.00 | 77 | 1014.0 |
| 20260507160335 | 63 | 270 | 6.1 | 0.0 | 0.00 | 0.00 | 0.00 | 77 | 1014.0 |
| 20260507154835 | 64 | 280 | 5.2 | 0.0 | 0.00 | 0.00 | 0.00 | 73 | 1014.0 |
| 20260507153335 | 64 | 280 | 5.2 | 0.0 | 0.00 | 0.00 | 0.00 | 73 | 1014.0 |
| 20260507151835 | 64 | 280 | 6.1 | 0.0 | 0.00 | 0.00 | 0.00 | 73 | 1014.0 |
| 20260507150335 | 64 | 280 | 6.1 | 0.0 | 0.00 | 0.00 | 0.00 | 73 | 1014.0 |
| 20260507144835 | 64 | 280 | 6.1 | 0.0 | 0.00 | 0.00 | 0.00 | 73 | 1014.0 |
| 20260507143337 | 64 | 280 | 6.1 | 0.0 | 0.00 | 0.00 | 0.00 | 73 | 1014.0 |
| 20260507141835 | 66 | 270 | 7.8 | 0.0 | 0.00 | 0.00 | 0.00 | 68 | 1014.0 |
| 20260507140335 | 66 | 270 | 7.8 | 0.0 | 0.00 | 0.00 | 0.00 | 68 | 1014.0 |
| 20260507134836 | 70 | 270 | 7.0 | 0.0 | 0.00 | 0.00 | 0.00 | 57 | 1014.0 |
| 20260507133335 | 70 | 270 | 7.0 | 0.0 | 0.00 | 0.00 | 0.00 | 57 | 1014.0 |
| 20260507131832 | 70 | 290 | 5.2 | 0.0 | 0.00 | 0.00 | 0.00 | 53 | 1014.0 |
| 20260507130335 | 70 | 290 | 5.2 | 0.0 | 0.00 | 0.00 | 0.00 | 53 | 1014.0 |
| 20260507124832 | 70 | 2.6 | 0.0 | 0.00 | 0.00 | 0.00 | 50 | 1014.0 | |
| 20260507123413 | 70 | 2.6 | 0.0 | 0.00 | 0.00 | 0.00 | 50 | 1014.0 | |
| 20260507121835 | 70 | 200 | 4.3 | 0.0 | 0.00 | 0.00 | 0.00 | 53 | 1015.0 |
| 20260507120335 | 70 | 200 | 4.3 | 0.0 | 0.00 | 0.00 | 0.00 | 53 | 1015.0 |
| 20260507114835 | 70 | 0.9 | 0.0 | 0.00 | 0.00 | 0.00 | 57 | 1015.0 | |
| 20260507113355 | 68 | 160 | 1.7 | 0.0 | 0.00 | 0.00 | 0.00 | 60 | 1015.0 |
| 20260507111836 | 68 | 160 | 1.7 | 0.0 | 0.00 | 0.00 | 0.00 | 60 | 1015.0 |
| 20260507110335 | 68 | 160 | 1.7 | 0.0 | 0.00 | 0.00 | 0.00 | 60 | 1015.0 |
| 20260507104835 | 68 | 120 | 2.6 | 0.0 | 0.00 | 0.00 | 0.00 | 60 | 1014.0 |
| 20260507103335 | 68 | 120 | 2.6 | 0.0 | 0.00 | 0.00 | 0.00 | 60 | 1014.0 |
| 20260507101835 | 66 | 120 | 2.6 | 0.0 | 0.00 | 0.00 | 0.00 | 64 | 1015.0 |
| 20260507100336 | 66 | 120 | 2.6 | 0.0 | 0.00 | 0.00 | 0.00 | 64 | 1015.0 |
| 20260507094835 | 66 | 70 | 5.2 | 0.0 | 0.00 | 0.00 | 0.00 | 73 | 1015.0 |
| 20260507093336 | 66 | 70 | 5.2 | 0.0 | 0.00 | 0.00 | 0.00 | 73 | 1015.0 |
| 20260507091837 | 66 | 0.9 | 0.0 | 0.00 | 0.00 | 0.00 | 68 | 1015.0 | |
| 20260507090335 | 66 | 0.9 | 0.0 | 0.00 | 0.00 | 0.00 | 68 | 1015.0 | |
| 20260507084835 | 68 | 1.7 | 0.0 | 0.00 | 0.00 | 0.00 | 56 | 1014.0 | |
| 20260507083336 | 68 | 1.7 | 0.0 | 0.00 | 0.00 | 0.00 | 56 | 1014.0 | |
| 20260507081835 | 68 | 1.7 | 0.0 | 0.00 | 0.00 | 0.00 | 53 | 1014.0 | |
| 20260507080336 | 68 | 1.7 | 0.0 | 0.00 | 0.00 | 0.00 | 53 | 1014.0 | |
| 20260507074836 | 68 | 1.7 | 0.0 | 0.00 | 0.00 | 0.00 | 53 | 1014.0 | |
| 20260507073335 | 68 | 1.7 | 0.0 | 0.00 | 0.00 | 0.00 | 53 | 1014.0 | |
| 20260507071836 | 68 | 150 | 2.6 | 0.0 | 0.00 | 0.00 | 0.00 | 53 | 1014.0 |
| 20260507070335 | 68 | 150 | 2.6 | 0.0 | 0.00 | 0.00 | 0.00 | 53 | 1014.0 |
| 20260507064835 | 66 | 1.7 | 0.0 | 0.00 | 0.00 | 0.00 | 56 | 1014.0 | |
| 20260507063335 | 66 | 1.7 | 0.0 | 0.00 | 0.00 | 0.00 | 56 | 1014.0 | |
| 20260507061845 | 64 | 1.7 | 0.0 | 0.00 | 0.00 | 0.00 | 60 | 1013.0 | |
| 20260507060335 | 64 | 1.7 | 0.0 | 0.00 | 0.00 | 0.00 | 60 | 1013.0 | |
| 20260507054835 | 64 | 70 | 2.6 | 0.0 | 0.00 | 0.00 | 0.00 | 60 | 1013.0 |
| 20260507053343 | 64 | 70 | 2.6 | 0.0 | 0.00 | 0.00 | 0.00 | 60 | 1013.0 |
| 20260507051836 | 59 | 290 | 2.6 | 0.0 | 0.00 | 0.00 | 0.00 | 72 | 1013.0 |
| 20260507050335 | 59 | 290 | 2.6 | 0.0 | 0.00 | 0.00 | 0.00 | 72 | 1013.0 |
| 20260507044832 | 59 | 2.6 | 0.0 | 0.00 | 0.00 | 0.00 | 72 | 1013.0 |